Time,TemperatureF,DewpointF,PressureIn,WindDirection,WindDirectionDegrees,WindSpeedMPH,WindSpeedGustMPH,Humidity,HourlyPrecipIn,Conditions,Clouds,dailyrainin,SoftwareType,DateUTC
2013-05-15 00:01:00,34.1,32.3,30.06,SW,217,0.0,0.0,93,0.00,,,0.00,WUHU216DAVISVP2,2013-05-15 04:01:00,
2013-05-15 00:06:00,33.9,32.1,30.06,SW,217,0.0,0.0,93,0.00,,,0.00,WUHU216DAVISVP2,2013-05-15 04:06:00,
2013-05-15 00:11:00,33.6,31.7,30.06,SW,217,0.0,0.0,93,0.00,,,0.00,WUHU216DAVISVP2,2013-05-15 04:11:00,
2013-05-15 00:16:00,33.6,32.0,30.06,SW,217,0.0,0.0,94,0.00,,,0.00,WUHU216DAVISVP2,2013-05-15 04:16:00,
2013-05-15 00:21:00,33.5,31.9,30.06,SW,217,0.0,0.0,94,0.00,,,0.00,WUHU216DAVISVP2,2013-05-15 04:21:00,
2013-05-15 00:26:00,33.3,31.7,30.06,SW,217,0.0,0.0,94,0.00,,,0.00,WUHU216DAVISVP2,2013-05-15 04:26:00,
2013-05-15 00:31:00,33.1,31.5,30.06,SW,217,0.0,0.0,94,0.00,,,0.00,WUHU216DAVISVP2,2013-05-15 04:31:00,
2013-05-15 00:36:00,33.0,31.4,30.06,SW,217,0.0,0.0,94,0.00,,,0.00,WUHU216DAVISVP2,2013-05-15 04:36:00,
2013-05-15 00:41:00,32.7,31.1,30.06,SW,217,0.0,0.0,94,0.00,,,0.00,WUHU216DAVISVP2,2013-05-15 04:41:00,
2013-05-15 00:46:00,32.7,31.4,30.06,SW,217,0.0,0.0,95,0.00,,,0.00,WUHU216DAVISVP2,2013-05-15 04:46:00,
2013-05-15 00:51:00,32.6,31.3,30.06,SW,217,0.0,0.0,95,0.00,,,0.00,WUHU216DAVISVP2,2013-05-15 04:51:00,
2013-05-15 00:56:00,32.3,30.7,30.06,SW,217,0.0,0.0,94,0.00,,,0.00,WUHU216DAVISVP2,2013-05-15 04:56:00,
2013-05-15 01:01:00,32.2,30.9,30.06,SW,217,0.0,0.0,95,0.00,,,0.00,WUHU216DAVISVP2,2013-05-15 05:01:00,
2013-05-15 01:06:00,32.2,30.9,30.06,SW,217,0.0,0.0,95,0.00,,,0.00,WUHU216DAVISVP2,2013-05-15 05:06:00,
2013-05-15 01:11:00,31.9,30.6,30.06,SW,217,0.0,0.0,95,0.00,,,0.00,WUHU216DAVISVP2,2013-05-15 05:11:00,
2013-05-15 01:16:00,31.7,30.4,30.06,SW,217,0.0,0.0,95,0.00,,,0.00,WUHU216DAVISVP2,2013-05-15 05:16:00,
2013-05-15 01:21:00,31.7,30.4,30.06,SW,217,0.0,0.0,95,0.00,,,0.00,WUHU216DAVISVP2,2013-05-15 05:21:00,
2013-05-15 01:26:00,31.7,30.4,30.06,SW,217,0.0,0.0,95,0.00,,,0.00,WUHU216DAVISVP2,2013-05-15 05:26:00,
2013-05-15 01:31:00,31.7,30.4,30.06,SW,217,0.0,0.0,95,0.00,,,0.00,WUHU216DAVISVP2,2013-05-15 05:31:00,
2013-05-15 01:36:00,31.5,30.2,30.06,SW,217,0.0,0.0,95,0.00,,,0.00,WUHU216DAVISVP2,2013-05-15 05:36:00,
2013-05-15 01:41:00,31.4,30.1,30.06,SW,217,0.0,0.0,95,0.00,,,0.00,WUHU216DAVISVP2,2013-05-15 05:41:00,
2013-05-15 01:46:00,31.4,30.1,30.06,SW,217,0.0,0.0,95,0.00,,,0.00,WUHU216DAVISVP2,2013-05-15 05:46:00,
2013-05-15 01:51:00,31.6,30.6,30.06,SW,217,0.0,0.0,96,0.00,,,0.00,WUHU216DAVISVP2,2013-05-15 05:51:00,
2013-05-15 01:56:00,31.5,30.5,30.07,SW,217,0.0,0.0,96,0.00,,,0.00,WUHU216DAVISVP2,2013-05-15 05:56:00,
2013-05-15 02:01:00,31.3,30.3,30.06,SW,217,0.0,0.0,96,0.00,,,0.00,WUHU216DAVISVP2,2013-05-15 06:01:00,
2013-05-15 02:06:00,31.4,30.4,30.06,SW,217,0.0,0.0,96,0.00,,,0.00,WUHU216DAVISVP2,2013-05-15 06:06:00,
2013-05-15 02:11:00,31.4,30.4,30.06,SW,217,0.0,0.0,96,0.00,,,0.00,WUHU216DAVISVP2,2013-05-15 06:11:00,
2013-05-15 02:16:00,31.4,30.4,30.06,SW,217,0.0,0.0,96,0.00,,,0.00,WUHU216DAVISVP2,2013-05-15 06:16:00,
2013-05-15 02:21:00,31.5,30.5,30.06,SW,217,0.0,0.0,96,0.00,,,0.00,WUHU216DAVISVP2,2013-05-15 06:21:00,
2013-05-15 02:26:00,31.5,30.5,30.06,SW,217,0.0,0.0,96,0.00,,,0.00,WUHU216DAVISVP2,2013-05-15 06:26:00,
2013-05-15 02:31:00,31.6,30.6,30.06,SW,217,0.0,0.0,96,0.00,,,0.00,WUHU216DAVISVP2,2013-05-15 06:31:00,
2013-05-15 02:36:00,31.6,30.6,30.06,SW,217,0.0,0.0,96,0.00,,,0.00,WUHU216DAVISVP2,2013-05-15 06:36:00,
2013-05-15 02:41:00,31.4,30.4,30.06,SW,217,0.0,0.0,96,0.00,,,0.00,WUHU216DAVISVP2,2013-05-15 06:41:00,
2013-05-15 02:46:00,31.2,30.2,30.06,SW,217,0.0,0.0,96,0.00,,,0.00,WUHU216DAVISVP2,2013-05-15 06:46:00,
2013-05-15 02:51:00,31.3,30.3,30.06,SW,217,0.0,0.0,96,0.00,,,0.00,WUHU216DAVISVP2,2013-05-15 06:51:00,
2013-05-15 02:56:00,31.2,30.2,30.06,SW,217,0.0,0.0,96,0.00,,,0.00,WUHU216DAVISVP2,2013-05-15 06:56:00,
2013-05-15 03:01:00,31.0,30.0,30.06,SW,217,0.0,0.0,96,0.00,,,0.00,WUHU216DAVISVP2,2013-05-15 07:01:00,
2013-05-15 03:06:00,30.8,29.8,30.06,SW,217,0.0,0.0,96,0.00,,,0.00,WUHU216DAVISVP2,2013-05-15 07:06:00,
2013-05-15 03:11:00,30.6,29.6,30.06,SW,217,0.0,0.0,96,0.00,,,0.00,WUHU216DAVISVP2,2013-05-15 07:11:00,
2013-05-15 03:16:00,30.4,29.4,30.06,SW,217,0.0,0.0,96,0.00,,,0.00,WUHU216DAVISVP2,2013-05-15 07:16:00,
2013-05-15 03:21:00,30.4,29.4,30.05,SW,217,0.0,0.0,96,0.00,,,0.00,WUHU216DAVISVP2,2013-05-15 07:21:00,
2013-05-15 03:26:00,30.4,29.4,30.05,SW,217,0.0,0.0,96,0.00,,,0.00,WUHU216DAVISVP2,2013-05-15 07:26:00,
2013-05-15 03:31:00,30.4,29.4,30.05,SW,217,0.0,0.0,96,0.00,,,0.00,WUHU216DAVISVP2,2013-05-15 07:31:00,
2013-05-15 03:36:00,30.2,29.2,30.05,SW,217,0.0,0.0,96,0.00,,,0.00,WUHU216DAVISVP2,2013-05-15 07:36:00,
2013-05-15 03:41:00,30.2,29.2,30.05,SW,217,0.0,0.0,96,0.00,,,0.00,WUHU216DAVISVP2,2013-05-15 07:41:00,
2013-05-15 03:46:00,30.2,29.4,30.05,SW,217,0.0,0.0,97,0.00,,,0.00,WUHU216DAVISVP2,2013-05-15 07:46:00,
2013-05-15 03:51:00,30.4,29.7,30.05,SW,217,0.0,0.0,97,0.00,,,0.00,WUHU216DAVISVP2,2013-05-15 07:51:00,
2013-05-15 03:56:00,30.4,29.6,30.06,SW,217,0.0,0.0,97,0.00,,,0.00,WUHU216DAVISVP2,2013-05-15 07:56:00,
2013-05-15 04:01:00,30.4,29.6,30.05,SW,217,0.0,0.0,97,0.00,,,0.00,WUHU216DAVISVP2,2013-05-15 08:01:00,
2013-05-15 04:06:00,30.3,29.5,30.05,SW,217,0.0,0.0,97,0.00,,,0.00,WUHU216DAVISVP2,2013-05-15 08:06:00,
2013-05-15 04:11:00,30.4,29.6,30.05,SW,217,0.0,0.0,97,0.00,,,0.00,WUHU216DAVISVP2,2013-05-15 08:11:00,
2013-05-15 04:16:00,30.3,29.5,30.05,SW,217,0.0,0.0,97,0.00,,,0.00,WUHU216DAVISVP2,2013-05-15 08:16:00,
2013-05-15 04:21:00,30.3,29.5,30.05,SW,217,0.0,0.0,97,0.00,,,0.00,WUHU216DAVISVP2,2013-05-15 08:21:00,
2013-05-15 04:26:00,30.1,29.3,30.04,SW,217,0.0,0.0,97,0.00,,,0.00,WUHU216DAVISVP2,2013-05-15 08:26:00,
2013-05-15 04:31:00,30.1,29.3,30.04,SW,217,0.0,0.0,97,0.00,,,0.00,WUHU216DAVISVP2,2013-05-15 08:31:00,
2013-05-15 04:36:00,30.0,29.3,30.04,SW,217,0.0,0.0,97,0.00,,,0.00,WUHU216DAVISVP2,2013-05-15 08:36:00,
2013-05-15 04:41:00,30.0,29.3,30.04,SW,217,0.0,0.0,97,0.00,,,0.00,WUHU216DAVISVP2,2013-05-15 08:41:00,
2013-05-15 04:46:00,29.8,29.0,30.04,SW,217,0.0,0.0,97,0.00,,,0.00,WUHU216DAVISVP2,2013-05-15 08:46:00,
2013-05-15 04:51:00,29.6,28.8,30.03,SW,217,0.0,0.0,97,0.00,,,0.00,WUHU216DAVISVP2,2013-05-15 08:51:00,
2013-05-15 04:56:00,29.6,28.8,30.03,SW,217,0.0,0.0,97,0.00,,,0.00,WUHU216DAVISVP2,2013-05-15 08:56:00,
2013-05-15 05:01:00,29.6,28.8,30.04,SW,217,0.0,0.0,97,0.00,,,0.00,WUHU216DAVISVP2,2013-05-15 09:01:00,
2013-05-15 05:06:00,29.7,28.9,30.04,SW,217,0.0,0.0,97,0.00,,,0.00,WUHU216DAVISVP2,2013-05-15 09:06:00,
2013-05-15 05:11:00,29.6,28.8,30.04,SW,217,0.0,0.0,97,0.00,,,0.00,WUHU216DAVISVP2,2013-05-15 09:11:00,
2013-05-15 05:16:00,29.7,28.9,30.04,SW,217,0.0,0.0,97,0.00,,,0.00,WUHU216DAVISVP2,2013-05-15 09:16:00,
2013-05-15 05:21:00,29.8,29.0,30.04,SW,217,0.0,0.0,97,0.00,,,0.00,WUHU216DAVISVP2,2013-05-15 09:21:00,
2013-05-15 05:26:00,29.7,28.9,30.04,SW,217,0.0,0.0,97,0.00,,,0.00,WUHU216DAVISVP2,2013-05-15 09:26:00,
2013-05-15 05:31:00,29.6,28.9,30.03,SW,217,0.0,0.0,97,0.00,,,0.00,WUHU216DAVISVP2,2013-05-15 09:31:00,
2013-05-15 05:36:00,29.5,28.7,30.04,SW,217,0.0,0.0,97,0.00,,,0.00,WUHU216DAVISVP2,2013-05-15 09:36:00,
2013-05-15 05:41:00,29.6,28.8,30.03,SW,217,0.0,0.0,97,0.00,,,0.00,WUHU216DAVISVP2,2013-05-15 09:41:00,
2013-05-15 05:46:00,29.7,28.9,30.03,SW,217,0.0,0.0,97,0.00,,,0.00,WUHU216DAVISVP2,2013-05-15 09:46:00,
2013-05-15 05:51:00,30.0,29.2,30.03,SW,217,0.0,0.0,97,0.00,,,0.00,WUHU216DAVISVP2,2013-05-15 09:51:00,
2013-05-15 05:56:00,30.2,29.4,30.03,SW,217,0.0,0.0,97,0.00,,,0.00,WUHU216DAVISVP2,2013-05-15 09:56:00,
2013-05-15 06:01:00,30.8,30.0,30.03,SW,217,0.0,0.0,97,0.00,,,0.00,WUHU216DAVISVP2,2013-05-15 10:01:00,
2013-05-15 06:06:00,31.2,30.4,30.03,SW,217,0.0,0.0,97,0.00,,,0.00,WUHU216DAVISVP2,2013-05-15 10:06:00,
2013-05-15 06:11:00,31.5,30.7,30.03,SW,217,0.0,0.0,97,0.00,,,0.00,WUHU216DAVISVP2,2013-05-15 10:11:00,
2013-05-15 06:16:00,32.3,31.5,30.03,SW,217,0.0,0.0,97,0.00,,,0.00,WUHU216DAVISVP2,2013-05-15 10:16:00,
2013-05-15 06:21:00,33.3,32.5,30.03,SW,217,0.0,0.0,97,0.00,,,0.00,WUHU216DAVISVP2,2013-05-15 10:21:00,
2013-05-15 06:26:00,34.0,33.2,30.03,SW,217,0.0,0.0,97,0.00,,,0.00,WUHU216DAVISVP2,2013-05-15 10:26:00,
2013-05-15 06:31:00,34.1,33.3,30.03,SW,217,0.0,0.0,97,0.00,,,0.00,WUHU216DAVISVP2,2013-05-15 10:31:00,
2013-05-15 06:36:00,34.2,33.4,30.03,SW,217,0.0,0.0,97,0.00,,,0.00,WUHU216DAVISVP2,2013-05-15 10:36:00,
2013-05-15 06:41:00,34.5,33.7,30.03,SW,217,0.0,0.0,97,0.00,,,0.00,WUHU216DAVISVP2,2013-05-15 10:41:00,
2013-05-15 06:46:00,34.9,34.1,30.03,SW,217,0.0,0.0,97,0.00,,,0.00,WUHU216DAVISVP2,2013-05-15 10:46:00,
2013-05-15 06:51:00,35.3,34.5,30.03,SW,217,0.0,0.0,97,0.00,,,0.00,WUHU216DAVISVP2,2013-05-15 10:51:00,
2013-05-15 06:56:00,35.8,35.0,30.03,SW,217,0.0,0.0,97,0.00,,,0.00,WUHU216DAVISVP2,2013-05-15 10:56:00,
2013-05-15 07:01:00,36.2,35.4,30.02,SSW,210,0.0,0.0,97,0.00,,,0.00,WUHU216DAVISVP2,2013-05-15 11:01:00,
2013-05-15 07:07:00,37.1,36.3,30.02,ESE,120,0.0,0.0,97,0.00,,,0.00,WUHU216DAVISVP2,2013-05-15 11:07:00,
2013-05-15 07:12:00,37.4,36.6,30.02,ESE,120,0.0,0.0,97,0.00,,,0.00,WUHU216DAVISVP2,2013-05-15 11:12:00,
2013-05-15 07:17:00,37.9,36.8,30.02,ESE,120,0.0,0.0,96,0.00,,,0.00,WUHU216DAVISVP2,2013-05-15 11:17:00,
2013-05-15 07:22:00,38.1,36.5,30.01,SSE,156,0.0,0.0,94,0.00,,,0.00,WUHU216DAVISVP2,2013-05-15 11:22:00,
2013-05-15 07:27:00,38.8,37.2,30.01,SW,214,2.0,2.0,94,0.00,,,0.00,WUHU216DAVISVP2,2013-05-15 11:27:00,
2013-05-15 07:32:00,40.1,38.2,30.01,SSE,156,1.1,2.0,93,0.00,,,0.00,WUHU216DAVISVP2,2013-05-15 11:32:00,
2013-05-15 07:37:00,41.2,37.9,30.01,SSW,197,2.0,4.0,88,0.00,,,0.00,WUHU216DAVISVP2,2013-05-15 11:37:00,
2013-05-15 07:42:00,41.9,38.0,30.00,South,185,1.9,4.0,86,0.00,,,0.00,WUHU216DAVISVP2,2013-05-15 11:42:00,
2013-05-15 07:47:00,42.8,37.7,30.00,South,189,2.0,6.0,82,0.00,,,0.00,WUHU216DAVISVP2,2013-05-15 11:47:00,
2013-05-15 07:52:00,43.3,37.9,30.00,SSW,201,1.7,6.0,81,0.00,,,0.00,WUHU216DAVISVP2,2013-05-15 11:52:00,
2013-05-15 07:57:00,44.0,37.9,30.00,SSW,208,4.0,6.0,79,0.00,,,0.00,WUHU216DAVISVP2,2013-05-15 11:57:00,
2013-05-15 08:03:00,44.5,38.1,30.00,SE,145,3.0,6.0,78,0.00,,,0.00,WUHU216DAVISVP2,2013-05-15 12:03:00,
2013-05-15 08:08:00,45.6,38.5,30.00,SSW,197,2.0,5.0,76,0.00,,,0.00,WUHU216DAVISVP2,2013-05-15 12:08:00,
2013-05-15 08:13:00,46.0,37.2,30.00,SSW,210,4.0,6.0,71,0.00,,,0.00,WUHU216DAVISVP2,2013-05-15 12:13:00,
2013-05-15 08:18:00,46.6,37.4,29.99,SW,228,1.8,6.0,70,0.00,,,0.00,WUHU216DAVISVP2,2013-05-15 12:18:00,
2013-05-15 08:23:00,47.5,37.5,29.99,SE,131,5.0,9.0,68,0.00,,,0.00,WUHU216DAVISVP2,2013-05-15 12:23:00,
2013-05-15 08:28:00,48.5,36.9,29.98,South,183,5.1,13.0,64,0.00,,,0.00,WUHU216DAVISVP2,2013-05-15 12:28:00,
2013-05-15 08:33:00,48.8,36.9,29.98,SE,143,6.5,13.0,63,0.00,,,0.00,WUHU216DAVISVP2,2013-05-15 12:33:00,
2013-05-15 08:38:00,49.2,37.2,29.98,SSE,151,4.0,13.0,63,0.00,,,0.00,WUHU216DAVISVP2,2013-05-15 12:38:00,
2013-05-15 08:43:00,50.0,38.0,29.98,SSW,213,3.0,13.0,63,0.00,,,0.00,WUHU216DAVISVP2,2013-05-15 12:43:00,
2013-05-15 08:48:00,50.5,38.1,29.97,South,180,3.5,13.0,62,0.00,,,0.00,WUHU216DAVISVP2,2013-05-15 12:48:00,
2013-05-15 08:54:00,51.2,37.4,29.97,SE,142,6.5,13.0,59,0.00,,,0.00,WUHU216DAVISVP2,2013-05-15 12:54:00,
2013-05-15 08:59:00,51.4,37.6,29.97,SSW,198,5.2,13.0,59,0.00,,,0.00,WUHU216DAVISVP2,2013-05-15 12:59:00,
2013-05-15 09:04:00,51.8,37.1,29.97,SSE,158,2.8,15.0,57,0.00,,,0.00,WUHU216DAVISVP2,2013-05-15 13:04:00,
2013-05-15 09:09:00,52.0,35.9,29.97,South,175,6.0,15.0,54,0.00,,,0.00,WUHU216DAVISVP2,2013-05-15 13:09:00,
2013-05-15 09:14:00,52.0,36.4,29.97,South,182,4.8,14.0,55,0.00,,,0.00,WUHU216DAVISVP2,2013-05-15 13:14:00,
2013-05-15 09:19:00,51.7,35.6,29.97,South,177,8.1,18.0,54,0.00,,,0.00,WUHU216DAVISVP2,2013-05-15 13:19:00,
2013-05-15 09:24:00,51.6,36.0,29.96,South,170,5.1,18.0,55,0.00,,,0.00,WUHU216DAVISVP2,2013-05-15 13:24:00,
2013-05-15 09:29:00,51.5,36.4,29.96,South,174,5.6,18.0,56,0.00,,,0.00,WUHU216DAVISVP2,2013-05-15 13:29:00,
2013-05-15 09:34:00,51.4,36.3,29.96,South,174,7.0,20.0,56,0.00,,,0.00,WUHU216DAVISVP2,2013-05-15 13:34:00,
2013-05-15 09:39:00,51.5,36.4,29.95,ESE,117,5.0,20.0,56,0.00,,,0.00,WUHU216DAVISVP2,2013-05-15 13:39:00,
2013-05-15 09:44:00,51.7,37.0,29.95,South,190,3.6,20.0,57,0.00,,,0.00,WUHU216DAVISVP2,2013-05-15 13:44:00,
2013-05-15 09:50:00,51.6,36.0,29.95,SSW,204,7.0,20.0,55,0.00,,,0.00,WUHU216DAVISVP2,2013-05-15 13:50:00,
2013-05-15 09:55:00,51.5,36.8,29.94,SSW,211,4.0,13.0,57,0.00,,,0.00,WUHU216DAVISVP2,2013-05-15 13:55:00,
2013-05-15 10:00:00,51.8,37.1,29.95,SSE,165,4.1,13.0,57,0.00,,,0.00,WUHU216DAVISVP2,2013-05-15 14:00:00,
2013-05-15 10:05:00,52.5,38.6,29.95,South,170,3.0,13.0,59,0.00,,,0.00,WUHU216DAVISVP2,2013-05-15 14:05:00,
2013-05-15 10:10:00,52.9,37.6,29.95,SSW,209,4.3,14.0,56,0.00,,,0.00,WUHU216DAVISVP2,2013-05-15 14:10:00,
2013-05-15 10:15:00,53.1,37.8,29.94,SSW,205,2.7,14.0,56,0.00,,,0.00,WUHU216DAVISVP2,2013-05-15 14:15:00,
2013-05-15 10:20:00,53.3,38.0,29.94,East,89,5.0,14.0,56,0.00,,,0.00,WUHU216DAVISVP2,2013-05-15 14:20:00,
2013-05-15 10:25:00,53.6,37.9,29.93,South,176,3.8,14.0,55,0.00,,,0.00,WUHU216DAVISVP2,2013-05-15 14:25:00,
2013-05-15 10:30:00,54.0,38.7,29.93,SSE,162,2.6,8.0,56,0.00,,,0.00,WUHU216DAVISVP2,2013-05-15 14:30:00,
2013-05-15 10:36:00,54.5,38.7,29.93,South,180,7.0,11.0,55,0.00,,,0.00,WUHU216DAVISVP2,2013-05-15 14:36:00,
2013-05-15 10:41:00,54.9,39.6,29.93,SSW,212,3.2,11.0,56,0.00,,,0.00,WUHU216DAVISVP2,2013-05-15 14:41:00,
2013-05-15 10:46:00,55.1,39.3,29.93,ESE,107,11.0,12.0,55,0.00,,,0.00,WUHU216DAVISVP2,2013-05-15 14:46:00,
2013-05-15 10:51:00,55.4,39.6,29.93,South,188,5.0,12.0,55,0.00,,,0.00,WUHU216DAVISVP2,2013-05-15 14:51:00,
2013-05-15 10:57:00,55.6,39.3,29.93,SE,134,7.0,14.0,54,0.00,,,0.00,WUHU216DAVISVP2,2013-05-15 14:57:00,
2013-05-15 11:02:00,55.8,39.9,29.93,South,181,4.4,17.0,55,0.00,,,0.00,WUHU216DAVISVP2,2013-05-15 15:02:00,
2013-05-15 11:08:00,55.9,39.5,29.93,South,178,4.5,17.0,54,0.00,,,0.00,WUHU216DAVISVP2,2013-05-15 15:08:00,
2013-05-15 11:13:00,55.9,40.0,29.93,SSW,198,5.8,17.0,55,0.00,,,0.00,WUHU216DAVISVP2,2013-05-15 15:13:00,
2013-05-15 11:18:00,55.8,39.9,29.92,South,186,4.0,17.0,55,0.00,,,0.00,WUHU216DAVISVP2,2013-05-15 15:18:00,
2013-05-15 11:23:00,55.7,39.8,29.92,ESE,121,4.0,13.0,55,0.00,,,0.00,WUHU216DAVISVP2,2013-05-15 15:23:00,
2013-05-15 11:28:00,55.8,39.4,29.92,SE,132,7.0,14.0,54,0.00,,,0.00,WUHU216DAVISVP2,2013-05-15 15:28:00,
2013-05-15 11:33:00,55.7,39.8,29.91,SW,224,5.0,17.0,55,0.00,,,0.00,WUHU216DAVISVP2,2013-05-15 15:33:00,
2013-05-15 11:39:00,55.8,39.9,29.91,SSW,206,5.2,17.0,55,0.00,,,0.00,WUHU216DAVISVP2,2013-05-15 15:39:00,
2013-05-15 11:44:00,55.9,39.5,29.91,West,271,10.0,17.0,54,0.00,,,0.00,WUHU216DAVISVP2,2013-05-15 15:44:00,
2013-05-15 11:49:00,55.9,40.0,29.91,SSW,212,5.9,17.0,55,0.00,,,0.00,WUHU216DAVISVP2,2013-05-15 15:49:00,
2013-05-15 11:54:00,55.9,41.0,29.91,SSW,195,4.0,15.0,57,0.00,,,0.00,WUHU216DAVISVP2,2013-05-15 15:54:00,
2013-05-15 11:59:00,55.3,41.3,29.90,South,186,7.0,15.0,59,0.00,,,0.00,WUHU216DAVISVP2,2013-05-15 15:59:00,
2013-05-15 12:04:00,54.7,42.1,29.90,SW,228,12.0,15.0,62,0.00,,,0.00,WUHU216DAVISVP2,2013-05-15 16:04:00,
2013-05-15 12:09:00,54.4,42.2,29.89,South,169,4.0,16.0,63,0.00,,,0.00,WUHU216DAVISVP2,2013-05-15 16:09:00,
2013-05-15 12:14:00,54.3,42.9,29.87,South,188,4.4,16.0,65,0.00,,,0.00,WUHU216DAVISVP2,2013-05-15 16:14:00,
2013-05-15 12:20:00,54.4,42.6,29.85,SSE,153,9.0,16.0,64,0.00,,,0.00,WUHU216DAVISVP2,2013-05-15 16:20:00,
2013-05-15 12:25:00,54.9,42.2,29.85,SSW,197,11.2,20.0,62,0.00,,,0.00,WUHU216DAVISVP2,2013-05-15 16:25:00,
2013-05-15 12:30:00,55.2,42.5,29.84,SSW,213,10.0,20.0,62,0.00,,,0.00,WUHU216DAVISVP2,2013-05-15 16:30:00,
2013-05-15 12:35:00,55.1,43.3,29.84,SW,222,7.0,23.0,64,0.00,,,0.00,WUHU216DAVISVP2,2013-05-15 16:35:00,
2013-05-15 12:40:00,54.9,44.3,29.83,SE,145,6.3,23.0,67,0.00,,,0.00,WUHU216DAVISVP2,2013-05-15 16:40:00,
2013-05-15 12:46:00,54.4,44.2,29.83,SSE,159,6.3,23.0,68,0.00,,,0.00,WUHU216DAVISVP2,2013-05-15 16:46:00,
2013-05-15 12:51:00,54.1,44.3,29.83,SSW,193,5.1,18.0,69,0.00,,,0.00,WUHU216DAVISVP2,2013-05-15 16:51:00,
2013-05-15 12:56:00,54.2,44.4,29.83,South,176,11.0,18.0,69,0.00,,,0.00,WUHU216DAVISVP2,2013-05-15 16:56:00,
2013-05-15 13:01:00,54.1,44.6,29.83,SSW,192,6.8,19.0,70,0.00,,,0.00,WUHU216DAVISVP2,2013-05-15 17:01:00,
2013-05-15 13:06:00,53.9,44.3,29.83,SSW,210,8.3,21.0,70,0.00,,,0.00,WUHU216DAVISVP2,2013-05-15 17:06:00,
2013-05-15 13:11:00,53.7,44.5,29.82,SW,217,11.0,21.0,71,0.00,,,0.00,WUHU216DAVISVP2,2013-05-15 17:11:00,
2013-05-15 13:16:00,53.3,45.2,29.81,South,183,9.2,21.0,74,0.00,,,0.00,WUHU216DAVISVP2,2013-05-15 17:16:00,
2013-05-15 13:21:00,52.7,45.7,29.83,SW,214,6.5,20.0,77,0.00,,,0.00,WUHU216DAVISVP2,2013-05-15 17:21:00,
2013-05-15 13:26:00,52.0,46.1,29.86,SSW,201,7.4,20.0,80,0.00,,,0.00,WUHU216DAVISVP2,2013-05-15 17:26:00,
2013-05-15 13:31:00,51.6,46.3,29.84,ESE,111,5.0,20.0,82,0.03,,,0.03,WUHU216DAVISVP2,2013-05-15 17:31:00,
2013-05-15 13:36:00,51.3,47.2,29.83,SE,139,3.2,14.0,86,0.07,,,0.07,WUHU216DAVISVP2,2013-05-15 17:36:00,
2013-05-15 13:42:00,51.4,47.9,29.83,South,184,8.0,14.0,88,0.08,,,0.08,WUHU216DAVISVP2,2013-05-15 17:42:00,
2013-05-15 13:47:00,51.7,48.5,29.81,SSE,157,5.6,13.0,89,0.08,,,0.08,WUHU216DAVISVP2,2013-05-15 17:47:00,
2013-05-15 13:52:00,51.7,48.5,29.81,South,178,4.9,13.0,89,0.08,,,0.08,WUHU216DAVISVP2,2013-05-15 17:52:00,
2013-05-15 13:57:00,51.7,48.8,29.80,SSW,201,9.0,17.0,90,0.09,,,0.09,WUHU216DAVISVP2,2013-05-15 17:57:00,
2013-05-15 14:03:00,52.0,49.4,29.80,SE,136,6.0,17.0,91,0.10,,,0.10,WUHU216DAVISVP2,2013-05-15 18:03:00,
2013-05-15 14:08:00,52.2,49.6,29.80,SSW,194,4.0,17.0,91,0.10,,,0.10,WUHU216DAVISVP2,2013-05-15 18:08:00,
2013-05-15 14:13:00,52.0,49.1,29.83,SE,134,3.5,17.0,90,0.10,,,0.10,WUHU216DAVISVP2,2013-05-15 18:13:00,
2013-05-15 14:18:00,52.0,49.1,29.83,SSE,148,3.2,15.0,90,0.10,,,0.10,WUHU216DAVISVP2,2013-05-15 18:18:00,
2013-05-15 14:23:00,51.8,48.9,29.79,SE,142,4.5,12.0,90,0.10,,,0.10,WUHU216DAVISVP2,2013-05-15 18:23:00,
2013-05-15 14:28:00,51.7,49.1,29.80,SW,217,2.4,10.0,91,0.10,,,0.10,WUHU216DAVISVP2,2013-05-15 18:28:00,
2013-05-15 14:33:00,51.8,49.5,29.80,ESE,108,4.0,10.0,92,0.04,,,0.10,WUHU216DAVISVP2,2013-05-15 18:33:00,
2013-05-15 14:39:00,51.9,49.6,29.78,South,186,6.0,10.0,92,0.02,,,0.10,WUHU216DAVISVP2,2013-05-15 18:39:00,
2013-05-15 14:44:00,52.0,49.7,29.75,SSE,160,5.6,12.0,92,0.02,,,0.10,WUHU216DAVISVP2,2013-05-15 18:44:00,
2013-05-15 14:49:00,52.0,50.0,29.77,SSW,198,2.6,12.0,93,0.02,,,0.10,WUHU216DAVISVP2,2013-05-15 18:49:00,
2013-05-15 14:54:00,52.2,50.2,29.79,NNE,26,6.0,12.0,93,0.02,,,0.10,WUHU216DAVISVP2,2013-05-15 18:54:00,
2013-05-15 15:00:00,52.4,50.4,29.78,SE,132,4.0,12.0,93,0.00,,,0.10,WUHU216DAVISVP2,2013-05-15 19:00:00,
2013-05-15 15:05:00,52.5,50.5,29.73,SSE,160,5.1,8.0,93,0.00,,,0.10,WUHU216DAVISVP2,2013-05-15 19:05:00,
2013-05-15 15:10:00,53.1,51.1,29.71,South,180,8.6,18.0,93,0.00,,,0.10,WUHU216DAVISVP2,2013-05-15 19:10:00,
2013-05-15 15:15:00,53.9,51.6,29.71,South,178,6.5,18.0,92,0.00,,,0.10,WUHU216DAVISVP2,2013-05-15 19:15:00,
2013-05-15 15:21:00,54.3,51.4,29.72,East,91,7.0,18.0,90,0.00,,,0.10,WUHU216DAVISVP2,2013-05-15 19:21:00,
2013-05-15 15:26:00,55.1,51.6,29.70,South,176,7.8,18.0,88,0.00,,,0.10,WUHU216DAVISVP2,2013-05-15 19:26:00,
2013-05-15 15:31:00,56.8,53.0,29.70,WSW,253,8.0,18.0,87,0.00,,,0.10,WUHU216DAVISVP2,2013-05-15 19:31:00,
2013-05-15 15:36:00,57.5,52.4,29.69,SSE,163,7.5,18.0,83,0.00,,,0.10,WUHU216DAVISVP2,2013-05-15 19:36:00,
2013-05-15 15:41:00,58.0,52.6,29.68,SSW,203,8.0,18.0,82,0.00,,,0.10,WUHU216DAVISVP2,2013-05-15 19:41:00,
2013-05-15 15:46:00,58.4,52.0,29.67,SSE,149,8.0,14.0,79,0.00,,,0.10,WUHU216DAVISVP2,2013-05-15 19:46:00,
2013-05-15 15:52:00,58.9,51.4,29.66,SE,127,11.0,21.0,76,0.00,,,0.10,WUHU216DAVISVP2,2013-05-15 19:52:00,
2013-05-15 15:57:00,59.2,51.0,29.66,South,169,15.0,21.0,74,0.00,,,0.10,WUHU216DAVISVP2,2013-05-15 19:57:00,
2013-05-15 16:02:00,60.0,51.3,29.65,South,169,9.0,24.0,73,0.00,,,0.10,WUHU216DAVISVP2,2013-05-15 20:02:00,
2013-05-15 16:07:00,60.8,51.1,29.65,SSE,148,9.5,24.0,70,0.00,,,0.10,WUHU216DAVISVP2,2013-05-15 20:07:00,
2013-05-15 16:12:00,61.5,51.8,29.66,SSW,211,11.0,24.0,70,0.00,,,0.10,WUHU216DAVISVP2,2013-05-15 20:12:00,
2013-05-15 16:17:00,61.4,50.9,29.66,SE,144,10.5,19.0,68,0.00,,,0.10,WUHU216DAVISVP2,2013-05-15 20:17:00,
2013-05-15 16:23:00,61.8,51.1,29.67,SSE,154,5.5,19.0,68,0.00,,,0.10,WUHU216DAVISVP2,2013-05-15 20:23:00,
2013-05-15 16:28:00,62.1,52.0,29.67,SE,140,5.9,19.0,69,0.00,,,0.10,WUHU216DAVISVP2,2013-05-15 20:28:00,
2013-05-15 16:33:00,62.6,52.0,29.67,South,174,4.6,19.0,68,0.00,,,0.10,WUHU216DAVISVP2,2013-05-15 20:33:00,
2013-05-15 16:38:00,63.1,52.5,29.67,SSE,160,5.4,15.0,68,0.00,,,0.10,WUHU216DAVISVP2,2013-05-15 20:38:00,
2013-05-15 16:43:00,64.3,51.0,29.67,SSW,211,9.6,22.0,62,0.00,,,0.10,WUHU216DAVISVP2,2013-05-15 20:43:00,
2013-05-15 16:48:00,64.9,51.3,29.68,SSW,211,5.8,23.0,61,0.00,,,0.10,WUHU216DAVISVP2,2013-05-15 20:48:00,
2013-05-15 16:53:00,65.3,51.2,29.68,South,191,7.2,23.0,60,0.00,,,0.10,WUHU216DAVISVP2,2013-05-15 20:53:00,
2013-05-15 16:59:00,65.6,51.0,29.67,South,188,9.8,23.0,59,0.00,,,0.10,WUHU216DAVISVP2,2013-05-15 20:59:00,
2013-05-15 17:04:00,65.7,51.4,29.66,SSW,207,4.6,20.0,60,0.00,,,0.10,WUHU216DAVISVP2,2013-05-15 21:04:00,
2013-05-15 17:09:00,66.2,52.1,29.66,WSW,239,3.3,20.0,60,0.00,,,0.10,WUHU216DAVISVP2,2013-05-15 21:09:00,
2013-05-15 17:14:00,66.6,51.5,29.65,SW,233,7.0,19.0,58,0.00,,,0.10,WUHU216DAVISVP2,2013-05-15 21:14:00,
2013-05-15 17:19:00,66.8,52.2,29.65,East,98,7.0,14.0,59,0.00,,,0.10,WUHU216DAVISVP2,2013-05-15 21:19:00,
2013-05-15 17:24:00,67.0,51.7,29.64,SSW,212,5.4,14.0,58,0.00,,,0.10,WUHU216DAVISVP2,2013-05-15 21:24:00,
2013-05-15 17:29:00,67.0,51.4,29.65,SSW,203,10.0,15.0,57,0.00,,,0.10,WUHU216DAVISVP2,2013-05-15 21:29:00,
2013-05-15 17:34:00,67.0,51.4,29.64,South,188,5.4,15.0,57,0.00,,,0.10,WUHU216DAVISVP2,2013-05-15 21:34:00,
2013-05-15 17:39:00,66.9,51.8,29.64,SSE,160,6.3,16.0,58,0.00,,,0.10,WUHU216DAVISVP2,2013-05-15 21:39:00,
2013-05-15 17:44:00,66.8,51.7,29.64,West,266,7.0,23.0,58,0.00,,,0.10,WUHU216DAVISVP2,2013-05-15 21:44:00,
2013-05-15 17:49:00,66.8,52.0,29.64,South,189,3.6,23.0,59,0.00,,,0.10,WUHU216DAVISVP2,2013-05-15 21:49:00,
2013-05-15 17:55:00,66.8,51.2,29.63,South,169,9.3,23.0,57,0.00,,,0.10,WUHU216DAVISVP2,2013-05-15 21:55:00,
2013-05-15 18:00:00,66.7,51.6,29.63,South,191,5.5,19.0,58,0.00,,,0.10,WUHU216DAVISVP2,2013-05-15 22:00:00,
2013-05-15 18:05:00,66.9,51.3,29.63,SSW,200,6.8,19.0,57,0.00,,,0.10,WUHU216DAVISVP2,2013-05-15 22:05:00,
2013-05-15 18:10:00,66.8,51.7,29.63,SE,131,8.0,19.0,58,0.00,,,0.10,WUHU216DAVISVP2,2013-05-15 22:10:00,
2013-05-15 18:15:00,66.7,51.6,29.63,SW,220,5.4,15.0,58,0.00,,,0.10,WUHU216DAVISVP2,2013-05-15 22:15:00,
2013-05-15 18:20:00,66.6,51.4,29.63,SW,215,4.0,15.0,58,0.00,,,0.10,WUHU216DAVISVP2,2013-05-15 22:20:00,
2013-05-15 18:26:00,66.8,52.0,29.64,SE,124,6.0,14.0,59,0.00,,,0.10,WUHU216DAVISVP2,2013-05-15 22:26:00,
2013-05-15 18:31:00,66.6,52.0,29.64,South,190,6.4,14.0,59,0.00,,,0.10,WUHU216DAVISVP2,2013-05-15 22:31:00,
2013-05-15 18:36:00,66.6,52.0,29.63,SSW,201,3.2,13.0,59,0.00,,,0.10,WUHU216DAVISVP2,2013-05-15 22:36:00,
2013-05-15 18:41:00,66.6,52.4,29.63,SSE,167,4.8,13.0,60,0.00,,,0.10,WUHU216DAVISVP2,2013-05-15 22:41:00,
2013-05-15 18:46:00,66.4,52.3,29.62,South,173,3.9,13.0,60,0.00,,,0.10,WUHU216DAVISVP2,2013-05-15 22:46:00,
2013-05-15 18:51:00,66.2,52.1,29.62,SSE,157,3.8,13.0,60,0.00,,,0.10,WUHU216DAVISVP2,2013-05-15 22:51:00,
2013-05-15 18:56:00,66.2,52.1,29.62,South,189,4.9,20.0,60,0.00,,,0.10,WUHU216DAVISVP2,2013-05-15 22:56:00,
2013-05-15 19:01:00,66.0,51.9,29.62,South,184,7.0,20.0,60,0.00,,,0.10,WUHU216DAVISVP2,2013-05-15 23:01:00,
2013-05-15 19:06:00,65.6,51.9,29.62,SSE,149,6.0,20.0,61,0.00,,,0.10,WUHU216DAVISVP2,2013-05-15 23:06:00,
2013-05-15 19:11:00,65.2,52.5,29.62,East,91,3.0,20.0,63,0.00,,,0.10,WUHU216DAVISVP2,2013-05-15 23:11:00,
2013-05-15 19:16:00,64.9,52.2,29.62,SW,235,6.0,12.0,63,0.00,,,0.10,WUHU216DAVISVP2,2013-05-15 23:16:00,
2013-05-15 19:21:00,64.7,52.2,29.62,South,184,5.7,15.0,64,0.00,,,0.10,WUHU216DAVISVP2,2013-05-15 23:21:00,
2013-05-15 19:26:00,64.7,52.2,29.62,South,173,6.0,15.0,64,0.00,,,0.10,WUHU216DAVISVP2,2013-05-15 23:26:00,
2013-05-15 19:32:00,64.5,52.5,29.61,South,180,4.3,14.0,65,0.00,,,0.10,WUHU216DAVISVP2,2013-05-15 23:32:00,
2013-05-15 19:37:00,64.6,52.6,29.61,SSE,164,4.7,14.0,65,0.00,,,0.10,WUHU216DAVISVP2,2013-05-15 23:37:00,
2013-05-15 19:42:00,64.5,52.9,29.61,WSW,253,3.0,13.0,66,0.00,,,0.10,WUHU216DAVISVP2,2013-05-15 23:42:00,
2013-05-15 19:47:00,64.5,52.9,29.61,South,171,5.0,9.0,66,0.00,,,0.10,WUHU216DAVISVP2,2013-05-15 23:47:00,
2013-05-15 19:52:00,64.4,52.8,29.61,SSE,160,3.8,9.0,66,0.00,,,0.10,WUHU216DAVISVP2,2013-05-15 23:52:00,
2013-05-15 19:57:00,64.3,53.1,29.61,SE,131,6.0,9.0,67,0.00,,,0.10,WUHU216DAVISVP2,2013-05-15 23:57:00,
2013-05-15 20:02:00,64.1,53.3,29.61,ESE,115,4.0,9.0,68,0.00,,,0.10,WUHU216DAVISVP2,2013-05-16 00:02:00,
2013-05-15 20:07:00,64.0,53.2,29.61,SSE,153,4.0,8.0,68,0.00,,,0.10,WUHU216DAVISVP2,2013-05-16 00:07:00,
2013-05-15 20:12:00,63.9,53.1,29.61,SSE,148,3.5,7.0,68,0.00,,,0.10,WUHU216DAVISVP2,2013-05-16 00:12:00,
2013-05-15 20:18:00,63.9,53.5,29.62,ESE,104,1.6,7.0,69,0.00,,,0.10,WUHU216DAVISVP2,2013-05-16 00:18:00,
2013-05-15 20:23:00,63.6,53.6,29.64,West,281,1.1,7.0,70,0.00,,,0.10,WUHU216DAVISVP2,2013-05-16 00:23:00,
2013-05-15 20:28:00,63.3,53.3,29.64,WNW,303,1.0,6.0,70,0.00,,,0.10,WUHU216DAVISVP2,2013-05-16 00:28:00,
2013-05-15 20:33:00,63.0,53.8,29.65,SSE,150,5.0,6.0,72,0.00,,,0.10,WUHU216DAVISVP2,2013-05-16 00:33:00,
2013-05-15 20:38:00,63.0,53.4,29.65,South,180,1.1,6.0,71,0.00,,,0.10,WUHU216DAVISVP2,2013-05-16 00:38:00,
2013-05-15 20:43:00,63.2,53.6,29.66,NW,318,4.0,6.0,71,0.00,,,0.10,WUHU216DAVISVP2,2013-05-16 00:43:00,
2013-05-15 20:48:00,63.3,53.7,29.66,SE,124,3.0,6.0,71,0.00,,,0.10,WUHU216DAVISVP2,2013-05-16 00:48:00,
2013-05-15 20:53:00,63.2,54.0,29.65,SW,217,1.4,7.0,72,0.00,,,0.10,WUHU216DAVISVP2,2013-05-16 00:53:00,
2013-05-15 20:58:00,63.2,54.0,29.65,SSW,194,2.8,10.0,72,0.00,,,0.10,WUHU216DAVISVP2,2013-05-16 00:58:00,
2013-05-15 21:03:00,63.4,53.8,29.66,SSW,198,3.0,10.0,71,0.00,,,0.10,WUHU216DAVISVP2,2013-05-16 01:03:00,
2013-05-15 21:08:00,63.4,54.2,29.66,South,173,2.5,10.0,72,0.00,,,0.10,WUHU216DAVISVP2,2013-05-16 01:08:00,
2013-05-15 21:13:00,63.4,54.2,29.67,SW,230,2.8,10.0,72,0.00,,,0.10,WUHU216DAVISVP2,2013-05-16 01:13:00,
2013-05-15 21:18:00,63.3,54.1,29.67,SSW,205,6.0,8.0,72,0.00,,,0.10,WUHU216DAVISVP2,2013-05-16 01:18:00,
2013-05-15 21:23:00,63.2,54.0,29.67,South,173,2.6,8.0,72,0.00,,,0.10,WUHU216DAVISVP2,2013-05-16 01:23:00,
2013-05-15 21:28:00,63.0,54.2,29.68,SW,230,2.5,8.0,73,0.00,,,0.10,WUHU216DAVISVP2,2013-05-16 01:28:00,
2013-05-15 21:33:00,63.0,54.3,29.68,South,181,4.0,8.0,73,0.00,,,0.10,WUHU216DAVISVP2,2013-05-16 01:33:00,
2013-05-15 21:39:00,62.9,54.5,29.68,West,274,1.0,8.0,74,0.00,,,0.10,WUHU216DAVISVP2,2013-05-16 01:39:00,
2013-05-15 21:44:00,62.8,54.4,29.68,NW,322,0.0,6.0,74,0.00,,,0.10,WUHU216DAVISVP2,2013-05-16 01:44:00,
2013-05-15 21:49:00,62.6,54.2,29.69,SSE,162,1.2,5.0,74,0.00,,,0.10,WUHU216DAVISVP2,2013-05-16 01:49:00,
2013-05-15 21:54:00,61.8,53.8,29.69,WNW,283,1.0,3.0,75,0.00,,,0.10,WUHU216DAVISVP2,2013-05-16 01:54:00,
2013-05-15 21:59:00,61.3,54.0,29.69,SSW,212,0.0,3.0,77,0.00,,,0.10,WUHU216DAVISVP2,2013-05-16 01:59:00,
2013-05-15 22:04:00,60.7,53.8,29.69,SSW,212,1.0,3.0,78,0.00,,,0.10,WUHU216DAVISVP2,2013-05-16 02:04:00,
2013-05-15 22:09:00,59.8,53.7,29.69,SSW,211,0.0,2.0,80,0.00,,,0.10,WUHU216DAVISVP2,2013-05-16 02:09:00,
2013-05-15 22:14:00,59.0,53.2,29.69,SW,233,1.6,2.0,81,0.00,,,0.10,WUHU216DAVISVP2,2013-05-16 02:14:00,
2013-05-15 22:20:00,58.4,53.0,29.69,ESE,117,0.0,2.0,82,0.00,,,0.10,WUHU216DAVISVP2,2013-05-16 02:20:00,
2013-05-15 22:25:00,57.8,53.0,29.69,ESE,117,0.0,2.0,84,0.00,,,0.10,WUHU216DAVISVP2,2013-05-16 02:25:00,
2013-05-15 22:30:00,57.2,52.4,29.69,ESE,117,0.0,2.0,84,0.00,,,0.10,WUHU216DAVISVP2,2013-05-16 02:30:00,
2013-05-15 22:36:00,56.6,52.1,29.69,ESE,117,0.0,0.0,85,0.00,,,0.10,WUHU216DAVISVP2,2013-05-16 02:36:00,
2013-05-15 22:41:00,56.0,51.9,29.69,ESE,117,0.0,0.0,86,0.00,,,0.10,WUHU216DAVISVP2,2013-05-16 02:41:00,
2013-05-15 22:46:00,55.3,51.8,29.69,ESE,117,0.0,0.0,88,0.00,,,0.10,WUHU216DAVISVP2,2013-05-16 02:46:00,
2013-05-15 22:51:00,54.6,51.4,29.69,ESE,117,0.0,0.0,89,0.00,,,0.10,WUHU216DAVISVP2,2013-05-16 02:51:00,
2013-05-15 22:56:00,53.9,51.0,29.70,ESE,117,0.0,0.0,90,0.00,,,0.10,WUHU216DAVISVP2,2013-05-16 02:56:00,
2013-05-15 23:01:00,53.2,50.6,29.70,ESE,117,0.0,0.0,91,0.00,,,0.10,WUHU216DAVISVP2,2013-05-16 03:01:00,
2013-05-15 23:06:00,52.9,50.6,29.69,ESE,117,0.0,0.0,92,0.00,,,0.10,WUHU216DAVISVP2,2013-05-16 03:06:00,
2013-05-15 23:11:00,52.6,50.3,29.69,ESE,117,0.0,0.0,92,0.00,,,0.10,WUHU216DAVISVP2,2013-05-16 03:11:00,
2013-05-15 23:16:00,52.4,50.1,29.69,ESE,117,0.0,0.0,92,0.00,,,0.10,WUHU216DAVISVP2,2013-05-16 03:16:00,
2013-05-15 23:21:00,52.0,50.0,29.69,ESE,117,0.0,0.0,93,0.00,,,0.10,WUHU216DAVISVP2,2013-05-16 03:21:00,
2013-05-15 23:27:00,51.4,49.4,29.69,ESE,117,0.0,0.0,93,0.00,,,0.10,WUHU216DAVISVP2,2013-05-16 03:27:00,
2013-05-15 23:32:00,51.2,49.2,29.69,ESE,117,0.0,0.0,93,0.00,,,0.10,WUHU216DAVISVP2,2013-05-16 03:32:00,
2013-05-15 23:37:00,51.1,49.4,29.70,ESE,117,0.0,0.0,94,0.00,,,0.10,WUHU216DAVISVP2,2013-05-16 03:37:00,
2013-05-15 23:42:00,50.7,49.0,29.70,ESE,117,0.0,0.0,94,0.00,,,0.10,WUHU216DAVISVP2,2013-05-16 03:42:00,
2013-05-15 23:47:00,50.4,48.7,29.70,ESE,117,0.0,0.0,94,0.00,,,0.10,WUHU216DAVISVP2,2013-05-16 03:47:00,
2013-05-15 23:52:00,50.2,48.5,29.70,ESE,117,0.0,0.0,94,0.00,,,0.10,WUHU216DAVISVP2,2013-05-16 03:52:00,
2013-05-15 23:57:00,50.0,48.3,29.71,ESE,117,0.0,0.0,94,0.00,,,0.10,WUHU216DAVISVP2,2013-05-16 03:57:00,